Regional Weather Roundup
Issued by NWS

Home | Current Version | Previous Version | Text Only | Print | Product List | Glossary On
Versions: 1 2 3 4 5 6 7 8 9 10 11 12 13 14 15 16 17 18 19 20 21 22 23 24 25 26 27 28 29 30 31 32 33 34 35 36 37 38 39 40 41 42 43 44 45 46 47 48 49 50
000
ASUS44 KOUN 032310
RWROK

WEATHER ROUNDUP FOR OKLAHOMA
NATIONAL WEATHER SERVICE NORMAN OK
600 PM CDT THU SEP 03 2015

NOTE: "FAIR" INDICATES FEW OR NO CLOUDS BELOW 12,000 FEET WITH NO
      SIGNIFICANT WEATHER AND/OR OBSTRUCTIONS TO VISIBILITY.

OKZ001>007-009>012-014-015-017-040000-
NORTHWEST OKLAHOMA AND THE PANHANDLE

CITY           SKY/WX    TMP DP  RH WIND       PRES   REMARKS
GAGE           MOSUNNY   95  57  27 S23G32    29.84F HX  94
GUYMON         MOSUNNY   97  49  19 SW17      29.81F HX  94
ENID/WOODRING  PTSUNNY   93  59  31 SE17      29.84F HX  92
$$

OKZ016-021>023-033>039-044-045-040000-
SOUTHWEST OKLAHOMA

CITY           SKY/WX    TMP DP  RH WIND       PRES   REMARKS
LAWTON/REGL    SUNNY     95  61  32 SE15      29.85F HX  95
LAWTON/FT SILL SUNNY     94  63  36 SE12      29.84F HX  95
FREDERICK      SUNNY     95  60  31 SE16      29.83S HX  95
CLINTON        SUNNY     94  56  27 S20       29.88F HX  92
HOBART         SUNNY     95  58  28 S16G25    29.86F HX  94
ALTUS AFB      SUNNY     95  60  30 SE16      29.84F HX  95
$$

OKZ018>020-024>031-040000-
CENTRAL OKLAHOMA

CITY           SKY/WX    TMP DP  RH WIND       PRES   REMARKS
OKLAHOMA CITY  PTSUNNY   91  62  37 SE14      29.88F HX  91
OKC/WILEY POST SUNNY     92  63  38 S14       29.87F HX  93
OKC/TINKER AFB SUNNY     92  63  38 SE10      29.88F HX  93
STILLWATER     SUNNY     92  64  39 S16       29.86F HX  93
GUTHRIE        SUNNY     93  62  35 S15       29.86F HX  93
$$

OKZ008-013-054>072-040000-
NORTHEAST OKLAHOMA

CITY           SKY/WX    TMP DP  RH WIND       PRES   REMARKS
TULSA          PTSUNNY   91  67  44 S14       29.87F HX  94
TULSA/JONES    SUNNY     91  65  41 S10       29.88F HX  93
PONCA CITY     MOSUNNY   92  64  39 S9G20     29.85S HX  93
BARTLESVILLE   SUNNY     88  69  53 S9G17     29.88F HX  92
MUSKOGEE       SUNNY     90  70  51 SE7       29.90F HX  95
$$

OKZ032-040>043-046>053-073>077-040000-
SOUTH CENTRAL/SOUTHEAST OKLAHOMA

CITY           SKY/WX    TMP DP  RH WIND       PRES   REMARKS
ARDMORE/DWNTWN SUNNY     91  55  29 S6        29.87F
MCALESTER      SUNNY     92  67  43 S5        29.89F HX  95
$$



USA.gov is the U.S. government's official web portal to all federal, state and local government web resources and services.